Location: *
(49.5667°N, 1.3667°W)
Time: 05:42:36
(UTC+00:00)

Cosmos 2219 - Pass Details

Date: 20 September 2019
Orbit: 834 x 860 km, 71.1° (Epoch: 15 October)

Event Time Altitude Azimuth Distance (km) Brightness Sun altitude
Rises 20:18:01 0° 221° (SW) 3,425 6.5 -20.9°
Reaches altitude 10° 20:20:31 10° 225° (SW) 2,492 5.8 -21.3°
Maximum altitude 20:26:09 57° 304° (NW) 1,010 3.9 -22.1°
Drops below altitude 10° 20:31:50 10° 23° (NNE) 2,501 5.7 -22.9°
Sets 20:34:21 0° 28° (NNE) 3,439 6.4 -23.2°
